Time,TemperatureF,DewpointF,PressureIn,WindDirection,WindDirectionDegrees,WindSpeedMPH,WindSpeedGustMPH,Humidity,HourlyPrecipIn,Conditions,Clouds,dailyrainin,SolarRadiationWatts/m^2,SoftwareType,DateUTC
2013-07-18 00:03:00,74.2,68.0,30.23,SSW,204,0.0,0.0,81,0.00,,,0.00,0,Wunderground v.1.15,2013-07-18 05:03:00,
2013-07-18 00:09:00,74.0,68.2,30.23,SSW,204,0.0,0.0,82,0.00,,,0.00,0,Wunderground v.1.15,2013-07-18 05:09:00,
2013-07-18 00:15:00,73.8,68.3,30.23,SSW,204,0.0,0.0,83,0.00,,,0.00,0,Wunderground v.1.15,2013-07-18 05:15:00,
2013-07-18 00:21:00,73.6,68.1,30.23,SSW,204,0.0,0.0,83,0.00,,,0.00,0,Wunderground v.1.15,2013-07-18 05:21:00,
2013-07-18 00:27:00,73.4,68.3,30.23,SSW,204,0.0,0.0,84,0.00,,,0.00,0,Wunderground v.1.15,2013-07-18 05:27:00,
2013-07-18 00:33:00,73.2,68.1,30.23,SSW,204,0.0,0.0,84,0.00,,,0.00,0,Wunderground v.1.15,2013-07-18 05:33:00,
2013-07-18 00:39:00,73.1,68.0,30.23,SSW,204,0.0,0.0,84,0.00,,,0.00,0,Wunderground v.1.15,2013-07-18 05:39:00,
2013-07-18 00:45:00,73.0,68.2,30.23,SSW,204,0.0,0.0,85,0.00,,,0.00,0,Wunderground v.1.15,2013-07-18 05:45:00,
2013-07-18 00:51:00,72.9,68.1,30.22,SSW,204,0.0,0.0,85,0.00,,,0.00,0,Wunderground v.1.15,2013-07-18 05:51:00,
2013-07-18 00:58:00,72.7,67.9,30.22,SSW,204,0.0,0.0,85,0.00,,,0.00,0,Wunderground v.1.15,2013-07-18 05:58:00,
2013-07-18 01:03:00,72.6,67.8,30.22,SSW,204,0.0,0.0,85,0.00,,,0.00,0,Wunderground v.1.15,2013-07-18 06:03:00,
2013-07-18 01:09:00,72.4,67.6,30.22,SSW,204,0.0,0.0,85,0.00,,,0.00,0,Wunderground v.1.15,2013-07-18 06:09:00,
2013-07-18 01:15:00,72.2,67.4,30.22,SSW,204,0.0,0.0,85,0.00,,,0.00,0,Wunderground v.1.15,2013-07-18 06:15:00,
2013-07-18 01:21:00,72.1,67.7,30.22,SSW,204,0.0,0.0,86,0.00,,,0.00,0,Wunderground v.1.15,2013-07-18 06:21:00,
2013-07-18 01:27:00,72.1,67.7,30.22,SSW,204,0.0,0.0,86,0.00,,,0.00,0,Wunderground v.1.15,2013-07-18 06:27:00,
2013-07-18 01:33:00,71.9,67.5,30.22,SSW,204,0.0,0.0,86,0.00,,,0.00,0,Wunderground v.1.15,2013-07-18 06:33:00,
2013-07-18 01:39:00,71.6,67.2,30.22,SSW,204,0.0,0.0,86,0.00,,,0.00,0,Wunderground v.1.15,2013-07-18 06:39:00,
2013-07-18 01:45:00,71.4,67.0,30.21,SSW,204,0.0,0.0,86,0.00,,,0.00,0,Wunderground v.1.15,2013-07-18 06:45:00,
2013-07-18 01:51:00,71.4,67.3,30.21,SSW,204,0.0,0.0,87,0.00,,,0.00,0,Wunderground v.1.15,2013-07-18 06:51:00,
2013-07-18 01:57:00,71.2,67.1,30.21,SSW,204,0.0,0.0,87,0.00,,,0.00,0,Wunderground v.1.15,2013-07-18 06:57:00,
2013-07-18 02:03:00,71.2,67.1,30.21,SSW,204,0.0,0.0,87,0.00,,,0.00,0,Wunderground v.1.15,2013-07-18 07:03:00,
2013-07-18 02:10:00,71.0,66.9,30.21,SSW,204,0.0,0.0,87,0.00,,,0.00,0,Wunderground v.1.15,2013-07-18 07:10:00,
2013-07-18 02:15:00,71.0,66.9,30.21,SSW,204,0.0,0.0,87,0.00,,,0.00,0,Wunderground v.1.15,2013-07-18 07:15:00,
2013-07-18 02:21:00,70.8,66.7,30.21,SSW,204,0.0,0.0,87,0.00,,,0.00,0,Wunderground v.1.15,2013-07-18 07:21:00,
2013-07-18 02:27:00,70.8,67.1,30.21,SSW,204,0.0,0.0,88,0.00,,,0.00,0,Wunderground v.1.15,2013-07-18 07:27:00,
2013-07-18 02:33:00,70.7,67.0,30.21,SSW,204,0.0,0.0,88,0.00,,,0.00,0,Wunderground v.1.15,2013-07-18 07:33:00,
2013-07-18 02:39:00,70.7,67.0,30.21,SSW,204,0.0,0.0,88,0.00,,,0.00,0,Wunderground v.1.15,2013-07-18 07:39:00,
2013-07-18 02:45:00,70.7,67.0,30.21,SSW,204,0.0,0.0,88,0.00,,,0.00,0,Wunderground v.1.15,2013-07-18 07:45:00,
2013-07-18 02:51:00,70.7,67.0,30.21,SSW,204,0.0,0.0,88,0.00,,,0.00,0,Wunderground v.1.15,2013-07-18 07:51:00,
2013-07-18 02:57:00,70.5,66.8,30.21,SSW,204,0.0,0.0,88,0.00,,,0.00,0,Wunderground v.1.15,2013-07-18 07:57:00,
2013-07-18 03:03:00,70.4,66.7,30.21,SSW,204,0.0,0.0,88,0.00,,,0.00,0,Wunderground v.1.15,2013-07-18 08:03:00,
2013-07-18 03:09:00,70.3,66.6,30.22,SSW,204,0.0,0.0,88,0.00,,,0.00,0,Wunderground v.1.15,2013-07-18 08:09:00,
2013-07-18 03:15:00,70.2,66.5,30.21,SSW,204,0.0,0.0,88,0.00,,,0.00,0,Wunderground v.1.15,2013-07-18 08:15:00,
2013-07-18 03:21:00,70.2,66.8,30.21,SSW,204,0.0,0.0,89,0.00,,,0.00,0,Wunderground v.1.15,2013-07-18 08:21:00,
2013-07-18 03:27:00,70.1,66.7,30.21,SSW,204,0.0,0.0,89,0.00,,,0.00,0,Wunderground v.1.15,2013-07-18 08:27:00,
2013-07-18 03:33:00,70.1,66.7,30.22,SSW,204,0.0,0.0,89,0.00,,,0.00,0,Wunderground v.1.15,2013-07-18 08:33:00,
2013-07-18 03:39:00,69.9,66.5,30.22,SSW,204,0.0,0.0,89,0.00,,,0.00,0,Wunderground v.1.15,2013-07-18 08:39:00,
2013-07-18 03:45:00,69.9,66.5,30.21,SSW,204,0.0,0.0,89,0.00,,,0.00,0,Wunderground v.1.15,2013-07-18 08:45:00,
2013-07-18 03:51:00,69.8,66.4,30.22,SSW,204,0.0,0.0,89,0.00,,,0.00,0,Wunderground v.1.15,2013-07-18 08:51:00,
2013-07-18 03:57:00,70.0,66.6,30.22,SSW,204,0.0,0.0,89,0.00,,,0.00,0,Wunderground v.1.15,2013-07-18 08:57:00,
2013-07-18 04:03:00,70.0,66.6,30.22,SSW,204,0.0,0.0,89,0.00,,,0.00,0,Wunderground v.1.15,2013-07-18 09:03:00,
2013-07-18 04:09:00,69.9,66.5,30.21,SSW,204,0.0,0.0,89,0.00,,,0.00,0,Wunderground v.1.15,2013-07-18 09:09:00,
2013-07-18 04:15:00,69.8,66.4,30.21,SSW,204,0.0,0.0,89,0.00,,,0.00,0,Wunderground v.1.15,2013-07-18 09:15:00,
2013-07-18 04:21:00,69.7,66.3,30.21,SSW,204,0.0,0.0,89,0.00,,,0.00,0,Wunderground v.1.15,2013-07-18 09:21:00,
2013-07-18 04:27:00,69.8,66.4,30.21,SSW,204,0.0,0.0,89,0.00,,,0.00,0,Wunderground v.1.15,2013-07-18 09:27:00,
2013-07-18 04:33:00,69.9,66.5,30.21,SSW,204,0.0,0.0,89,0.00,,,0.00,0,Wunderground v.1.15,2013-07-18 09:33:00,
2013-07-18 04:39:00,69.9,66.5,30.21,SSW,204,0.0,0.0,89,0.00,,,0.00,0,Wunderground v.1.15,2013-07-18 09:39:00,
2013-07-18 04:45:00,69.8,66.4,30.21,SSW,204,0.0,0.0,89,0.00,,,0.00,0,Wunderground v.1.15,2013-07-18 09:45:00,
2013-07-18 04:51:00,69.7,66.3,30.21,SSW,204,0.0,0.0,89,0.00,,,0.00,0,Wunderground v.1.15,2013-07-18 09:51:00,
2013-07-18 04:57:00,69.7,66.3,30.21,SSW,204,0.0,0.0,89,0.00,,,0.00,0,Wunderground v.1.15,2013-07-18 09:57:00,
2013-07-18 05:03:00,69.5,66.1,30.21,SSW,204,0.0,0.0,89,0.00,,,0.00,0,Wunderground v.1.15,2013-07-18 10:03:00,
2013-07-18 05:09:00,69.1,65.7,30.21,SSW,204,0.0,0.0,89,0.00,,,0.00,0,Wunderground v.1.15,2013-07-18 10:09:00,
2013-07-18 05:15:00,69.1,65.7,30.21,SSW,204,0.0,0.0,89,0.00,,,0.00,0,Wunderground v.1.15,2013-07-18 10:15:00,
2013-07-18 05:21:00,69.1,65.7,30.21,SSW,204,0.0,0.0,89,0.00,,,0.00,0,Wunderground v.1.15,2013-07-18 10:21:00,
2013-07-18 05:27:00,69.0,65.9,30.21,SSW,204,0.0,0.0,90,0.00,,,0.00,0,Wunderground v.1.15,2013-07-18 10:27:00,
2013-07-18 05:33:00,69.1,66.0,30.21,SSW,204,0.0,0.0,90,0.00,,,0.00,0,Wunderground v.1.15,2013-07-18 10:33:00,
2013-07-18 05:39:00,69.1,66.0,30.21,SSW,204,0.0,0.0,90,0.00,,,0.00,0,Wunderground v.1.15,2013-07-18 10:39:00,
2013-07-18 05:45:00,69.1,66.0,30.21,SSW,204,0.0,0.0,90,0.00,,,0.00,0,Wunderground v.1.15,2013-07-18 10:45:00,
2013-07-18 05:51:00,69.2,66.1,30.21,SSW,204,0.0,0.0,90,0.00,,,0.00,0,Wunderground v.1.15,2013-07-18 10:51:00,
2013-07-18 05:57:00,69.2,66.1,30.21,SSW,204,0.0,0.0,90,0.00,,,0.00,0,Wunderground v.1.15,2013-07-18 10:57:00,
2013-07-18 06:03:00,69.1,66.0,30.21,SSW,204,0.0,0.0,90,0.00,,,0.00,0,Wunderground v.1.15,2013-07-18 11:03:00,
2013-07-18 06:09:00,69.0,65.9,30.21,SSW,204,0.0,0.0,90,0.00,,,0.00,0,Wunderground v.1.15,2013-07-18 11:09:00,
2013-07-18 06:15:00,68.9,65.8,30.21,SSW,204,0.0,0.0,90,0.00,,,0.00,0,Wunderground v.1.15,2013-07-18 11:15:00,
2013-07-18 06:21:00,69.0,65.9,30.21,SSW,204,0.0,0.0,90,0.00,,,0.00,0,Wunderground v.1.15,2013-07-18 11:21:00,
2013-07-18 06:27:00,68.8,65.7,30.21,SSW,204,0.0,0.0,90,0.00,,,0.00,5,Wunderground v.1.15,2013-07-18 11:27:00,
2013-07-18 06:33:00,68.9,65.8,30.21,SSW,204,0.0,0.0,90,0.00,,,0.00,9,Wunderground v.1.15,2013-07-18 11:33:00,
2013-07-18 06:39:00,69.0,65.9,30.21,SSW,204,0.0,0.0,90,0.00,,,0.00,11,Wunderground v.1.15,2013-07-18 11:39:00,
2013-07-18 06:45:00,68.9,65.8,30.21,SSW,204,0.0,0.0,90,0.00,,,0.00,14,Wunderground v.1.15,2013-07-18 11:45:00,
2013-07-18 06:51:00,69.0,65.9,30.21,SSW,204,0.0,0.0,90,0.00,,,0.00,18,Wunderground v.1.15,2013-07-18 11:51:00,
2013-07-18 06:57:00,69.2,66.1,30.21,SSW,204,0.0,0.0,90,0.00,,,0.00,30,Wunderground v.1.15,2013-07-18 11:57:00,
2013-07-18 07:03:00,69.5,66.4,30.21,SSW,204,0.0,0.0,90,0.00,,,0.00,39,Wunderground v.1.15,2013-07-18 12:03:00,
2013-07-18 07:09:00,70.0,66.9,30.21,SSW,210,0.0,0.0,90,0.00,,,0.00,49,Wunderground v.1.15,2013-07-18 12:09:00,
2013-07-18 07:15:00,70.4,67.3,30.21,SSW,210,0.0,0.0,90,0.00,,,0.00,62,Wunderground v.1.15,2013-07-18 12:15:00,
2013-07-18 07:21:00,70.8,68.0,30.21,SSW,210,0.0,0.0,91,0.00,,,0.00,76,Wunderground v.1.15,2013-07-18 12:21:00,
2013-07-18 07:27:00,71.2,68.1,30.21,SSW,210,0.0,0.0,90,0.00,,,0.00,90,Wunderground v.1.15,2013-07-18 12:27:00,
2013-07-18 07:33:00,71.6,68.5,30.21,SSW,210,0.0,0.0,90,0.00,,,0.00,105,Wunderground v.1.15,2013-07-18 12:33:00,
2013-07-18 07:39:00,72.1,69.0,30.21,SSW,210,0.0,0.0,90,0.00,,,0.00,120,Wunderground v.1.15,2013-07-18 12:39:00,
2013-07-18 07:45:00,72.6,69.5,30.22,SSW,210,0.0,0.0,90,0.00,,,0.00,137,Wunderground v.1.15,2013-07-18 12:45:00,
2013-07-18 07:51:00,73.2,70.1,30.21,SSW,210,0.0,3.0,90,0.00,,,0.00,155,Wunderground v.1.15,2013-07-18 12:51:00,
2013-07-18 07:57:00,73.6,70.2,30.21,SSW,210,1.0,2.0,89,0.00,,,0.00,171,Wunderground v.1.15,2013-07-18 12:57:00,
2013-07-18 08:03:00,74.4,70.6,30.21,SSW,210,1.0,3.0,88,0.00,,,0.00,188,Wunderground v.1.15,2013-07-18 13:03:00,
2013-07-18 08:09:00,74.8,70.3,30.22,SSW,210,2.0,3.0,86,0.00,,,0.00,206,Wunderground v.1.15,2013-07-18 13:09:00,
2013-07-18 08:15:00,75.5,70.7,30.21,SSW,210,1.0,1.0,85,0.00,,,0.00,223,Wunderground v.1.15,2013-07-18 13:15:00,
2013-07-18 08:21:00,76.2,70.7,30.22,SSW,210,1.0,2.0,83,0.00,,,0.00,246,Wunderground v.1.15,2013-07-18 13:21:00,
2013-07-18 08:27:00,76.7,70.4,30.22,SSW,210,2.0,2.0,81,0.00,,,0.00,271,Wunderground v.1.15,2013-07-18 13:27:00,
2013-07-18 08:33:00,77.2,70.5,30.22,SSW,210,2.0,3.0,80,0.00,,,0.00,288,Wunderground v.1.15,2013-07-18 13:33:00,
2013-07-18 08:39:00,77.8,70.8,30.22,SSW,210,1.0,4.0,79,0.00,,,0.00,304,Wunderground v.1.15,2013-07-18 13:39:00,
2013-07-18 08:45:00,78.4,70.6,30.22,SSW,209,3.0,3.0,77,0.00,,,0.00,323,Wunderground v.1.15,2013-07-18 13:45:00,
2013-07-18 08:51:00,78.7,70.5,30.22,SSW,209,2.0,3.0,76,0.00,,,0.00,343,Wunderground v.1.15,2013-07-18 13:51:00,
2013-07-18 08:57:00,79.0,70.8,30.22,SSW,207,2.0,4.0,76,0.00,,,0.00,360,Wunderground v.1.15,2013-07-18 13:57:00,
2013-07-18 09:03:00,79.7,70.7,30.22,SSW,206,2.0,5.0,74,0.00,,,0.00,380,Wunderground v.1.15,2013-07-18 14:03:00,
2013-07-18 09:09:00,80.0,71.0,30.21,SSW,202,3.0,5.0,74,0.00,,,0.00,396,Wunderground v.1.15,2013-07-18 14:09:00,
2013-07-18 09:15:00,80.5,71.4,30.21,SSW,197,4.0,4.0,74,0.00,,,0.00,415,Wunderground v.1.15,2013-07-18 14:15:00,
2013-07-18 09:21:00,80.7,70.8,30.21,SSW,197,5.0,6.0,72,0.00,,,0.00,432,Wunderground v.1.15,2013-07-18 14:21:00,
2013-07-18 09:27:00,81.0,70.7,30.21,SSW,197,4.0,6.0,71,0.00,,,0.00,450,Wunderground v.1.15,2013-07-18 14:27:00,
2013-07-18 09:33:00,81.6,71.7,30.21,SSW,195,3.0,7.0,72,0.00,,,0.00,469,Wunderground v.1.15,2013-07-18 14:33:00,
2013-07-18 09:39:00,82.1,70.9,30.21,SSW,196,5.0,7.0,69,0.00,,,0.00,483,Wunderground v.1.15,2013-07-18 14:39:00,
2013-07-18 09:45:00,82.5,70.9,30.21,SSW,205,5.0,6.0,68,0.00,,,0.00,499,Wunderground v.1.15,2013-07-18 14:45:00,
2013-07-18 09:51:00,82.8,72.0,30.21,SSW,202,5.0,7.0,70,0.00,,,0.00,513,Wunderground v.1.15,2013-07-18 14:51:00,
2013-07-18 09:57:00,83.4,71.3,30.21,SW,214,5.0,7.0,67,0.00,,,0.00,534,Wunderground v.1.15,2013-07-18 14:57:00,
2013-07-18 10:03:00,83.9,71.8,30.21,SSW,204,6.0,6.0,67,0.00,,,0.00,550,Wunderground v.1.15,2013-07-18 15:03:00,
2013-07-18 10:09:00,84.4,72.2,30.20,SSW,204,5.0,8.0,67,0.00,,,0.00,564,Wunderground v.1.15,2013-07-18 15:09:00,
2013-07-18 10:15:00,84.5,71.9,30.20,SSW,212,5.0,8.0,66,0.00,,,0.00,578,Wunderground v.1.15,2013-07-18 15:15:00,
2013-07-18 10:21:00,84.8,71.3,30.20,SSW,202,5.0,9.0,64,0.00,,,0.00,594,Wunderground v.1.15,2013-07-18 15:21:00,
2013-07-18 10:28:00,85.4,71.8,30.20,SSW,208,5.0,7.0,64,0.00,,,0.00,612,Wunderground v.1.15,2013-07-18 15:28:00,
2013-07-18 10:33:00,85.6,71.6,30.20,SW,222,5.0,10.0,63,0.00,,,0.00,622,Wunderground v.1.15,2013-07-18 15:33:00,
2013-07-18 10:39:00,85.8,71.7,30.20,SW,222,4.0,10.0,63,0.00,,,0.00,671,Wunderground v.1.15,2013-07-18 15:39:00,
2013-07-18 10:45:00,86.2,71.6,30.20,SSW,193,5.0,5.0,62,0.00,,,0.00,693,Wunderground v.1.15,2013-07-18 15:45:00,
2013-07-18 10:51:00,86.8,70.8,30.19,SW,214,5.0,7.0,59,0.00,,,0.00,742,Wunderground v.1.15,2013-07-18 15:51:00,
2013-07-18 10:57:00,87.0,71.9,30.19,South,191,5.0,6.0,61,0.00,,,0.00,719,Wunderground v.1.15,2013-07-18 15:57:00,
2013-07-18 11:04:00,87.2,71.1,30.19,South,180,6.0,6.0,59,0.00,,,0.00,798,Wunderground v.1.15,2013-07-18 16:04:00,
2013-07-18 11:09:00,87.5,71.4,30.19,South,172,6.0,8.0,59,0.00,,,0.00,821,Wunderground v.1.15,2013-07-18 16:09:00,
2013-07-18 11:15:00,86.5,69.5,30.19,SSW,197,6.0,6.0,57,0.00,,,0.00,160,Wunderground v.1.15,2013-07-18 16:15:00,
2013-07-18 11:21:00,85.4,69.4,30.18,South,188,7.0,8.0,59,0.00,,,0.00,223,Wunderground v.1.15,2013-07-18 16:21:00,
2013-07-18 11:27:00,86.1,70.1,30.18,SSE,167,6.0,12.0,59,0.00,,,0.00,267,Wunderground v.1.15,2013-07-18 16:27:00,
2013-07-18 11:33:00,85.9,69.9,30.18,SSE,161,6.0,11.0,59,0.00,,,0.00,819,Wunderground v.1.15,2013-07-18 16:33:00,
2013-07-18 11:39:00,87.2,70.6,30.18,South,170,6.0,11.0,58,0.00,,,0.00,751,Wunderground v.1.15,2013-07-18 16:39:00,
2013-07-18 11:45:00,87.0,70.4,30.18,South,170,6.0,8.0,58,0.00,,,0.00,237,Wunderground v.1.15,2013-07-18 16:45:00,
2013-07-18 11:51:00,87.0,69.4,30.18,South,187,7.0,9.0,56,0.00,,,0.00,246,Wunderground v.1.15,2013-07-18 16:51:00,
2013-07-18 11:57:00,88.0,70.9,30.17,SW,225,7.0,11.0,57,0.00,,,0.00,891,Wunderground v.1.15,2013-07-18 16:57:00,
2013-07-18 12:03:00,88.6,70.4,30.17,SW,218,6.0,7.0,55,0.00,,,0.00,923,Wunderground v.1.15,2013-07-18 17:03:00,
2013-07-18 12:05:00,88.6,69.3,30.17,SSW,203,6.0,7.0,53,0.00,,,0.00,923,Wunderground v.1.15,2013-07-18 17:05:00,
2013-07-18 12:11:00,87.4,68.7,30.17,SSW,195,7.0,8.0,54,0.00,,,0.00,976,Wunderground v.1.15,2013-07-18 17:11:00,
2013-07-18 12:17:00,87.5,68.3,30.17,SSW,208,7.0,8.0,53,0.00,,,0.00,229,Wunderground v.1.15,2013-07-18 17:17:00,
2013-07-18 12:21:00,86.9,69.3,30.17,SSW,210,6.0,8.0,56,0.00,,,0.00,167,Wunderground v.1.15,2013-07-18 17:21:00,
2013-07-18 12:27:00,87.6,69.4,30.17,SSW,195,7.0,10.0,55,0.00,,,0.00,974,Wunderground v.1.15,2013-07-18 17:27:00,
2013-07-18 12:33:00,89.7,69.2,30.17,SSW,192,7.0,7.0,51,0.00,,,0.00,979,Wunderground v.1.15,2013-07-18 17:33:00,
2013-07-18 12:39:00,90.4,69.8,30.17,SSW,203,6.0,10.0,51,0.00,,,0.00,963,Wunderground v.1.15,2013-07-18 17:39:00,
2013-07-18 12:45:00,89.4,70.0,30.16,SSW,203,6.0,6.0,53,0.00,,,0.00,213,Wunderground v.1.15,2013-07-18 17:45:00,
2013-07-18 12:51:00,90.4,69.2,30.16,South,170,5.0,8.0,50,0.00,,,0.00,970,Wunderground v.1.15,2013-07-18 17:51:00,
2013-07-18 12:57:00,89.9,69.9,30.15,South,181,7.0,12.0,52,0.00,,,0.00,1016,Wunderground v.1.15,2013-07-18 17:57:00,
2013-07-18 13:03:00,90.2,70.2,30.16,SSW,193,7.0,11.0,52,0.00,,,0.00,902,Wunderground v.1.15,2013-07-18 18:03:00,
2013-07-18 13:09:00,90.1,70.1,30.15,SSE,168,8.0,16.0,52,0.00,,,0.00,1025,Wunderground v.1.15,2013-07-18 18:09:00,
2013-07-18 13:15:00,89.4,70.0,30.15,SW,219,7.0,8.0,53,0.00,,,0.00,1018,Wunderground v.1.15,2013-07-18 18:15:00,
2013-07-18 13:21:00,90.1,70.1,30.15,SSW,203,7.0,11.0,52,0.00,,,0.00,940,Wunderground v.1.15,2013-07-18 18:21:00,
2013-07-18 13:27:00,91.0,71.5,30.15,SSW,193,7.0,7.0,53,0.00,,,0.00,991,Wunderground v.1.15,2013-07-18 18:27:00,
2013-07-18 13:33:00,91.6,69.1,30.15,SSW,212,8.0,10.0,48,0.00,,,0.00,990,Wunderground v.1.15,2013-07-18 18:33:00,
2013-07-18 13:39:00,91.7,68.6,30.15,South,169,7.0,10.0,47,0.00,,,0.00,1048,Wunderground v.1.15,2013-07-18 18:39:00,
2013-07-18 13:45:00,90.4,68.6,30.14,SSE,166,6.0,6.0,49,0.00,,,0.00,1048,Wunderground v.1.15,2013-07-18 18:45:00,
2013-07-18 13:51:00,89.7,69.2,30.14,South,185,7.0,11.0,51,0.00,,,0.00,962,Wunderground v.1.15,2013-07-18 18:51:00,
2013-07-18 13:57:00,90.4,68.0,30.14,SSW,206,6.0,8.0,48,0.00,,,0.00,236,Wunderground v.1.15,2013-07-18 18:57:00,
2013-07-18 14:03:00,90.9,68.5,30.14,South,188,5.0,11.0,48,0.00,,,0.00,867,Wunderground v.1.15,2013-07-18 19:03:00,
2013-07-18 14:09:00,91.4,69.0,30.14,SSE,154,7.0,11.0,48,0.00,,,0.00,947,Wunderground v.1.15,2013-07-18 19:09:00,
2013-07-18 14:15:00,91.7,67.3,30.13,South,183,8.0,9.0,45,0.00,,,0.00,1028,Wunderground v.1.15,2013-07-18 19:15:00,
2013-07-18 14:21:00,91.2,68.2,30.13,South,186,8.0,13.0,47,0.00,,,0.00,1035,Wunderground v.1.15,2013-07-18 19:21:00,
2013-07-18 14:27:00,89.8,68.7,30.13,SSE,161,9.0,9.0,50,0.00,,,0.00,475,Wunderground v.1.15,2013-07-18 19:27:00,
2013-07-18 14:33:00,89.8,68.1,30.12,SSE,159,8.0,8.0,49,0.00,,,0.00,294,Wunderground v.1.15,2013-07-18 19:33:00,
2013-07-18 14:39:00,90.6,68.2,30.12,South,173,7.0,10.0,48,0.00,,,0.00,320,Wunderground v.1.15,2013-07-18 19:39:00,
2013-07-18 14:47:00,91.1,68.7,30.12,South,180,8.0,14.0,48,0.00,,,0.00,654,Wunderground v.1.15,2013-07-18 19:47:00,
2013-07-18 14:53:00,90.2,68.5,30.12,South,171,7.0,7.0,49,0.00,,,0.00,649,Wunderground v.1.15,2013-07-18 19:53:00,
2013-07-18 14:59:00,90.2,68.5,30.11,SSW,203,7.0,9.0,49,0.00,,,0.00,220,Wunderground v.1.15,2013-07-18 19:59:00,
2013-07-18 15:05:00,89.2,68.1,30.11,SSE,168,8.0,13.0,50,0.00,,,0.00,339,Wunderground v.1.15,2013-07-18 20:05:00,
2013-07-18 15:11:00,88.6,68.2,30.11,South,183,7.0,13.0,51,0.00,,,0.00,253,Wunderground v.1.15,2013-07-18 20:11:00,
2013-07-18 15:17:00,88.5,67.5,30.10,SSW,198,5.0,12.0,50,0.00,,,0.00,199,Wunderground v.1.15,2013-07-18 20:17:00,
2013-07-18 15:23:00,88.5,68.1,30.10,SSE,162,6.0,6.0,51,0.00,,,0.00,271,Wunderground v.1.15,2013-07-18 20:23:00,
2013-07-18 15:29:00,89.0,67.9,30.10,SW,220,6.0,11.0,50,0.00,,,0.00,301,Wunderground v.1.15,2013-07-18 20:29:00,
2013-07-18 15:35:00,89.4,67.7,30.10,South,178,7.0,9.0,49,0.00,,,0.00,366,Wunderground v.1.15,2013-07-18 20:35:00,
2013-07-18 15:41:00,90.1,67.8,30.09,SSW,208,7.0,14.0,48,0.00,,,0.00,480,Wunderground v.1.15,2013-07-18 20:41:00,
2013-07-18 15:47:00,90.1,67.8,30.08,South,191,7.0,11.0,48,0.00,,,0.00,411,Wunderground v.1.15,2013-07-18 20:47:00,
2013-07-18 15:53:00,91.0,67.3,30.09,SSW,201,8.0,9.0,46,0.00,,,0.00,795,Wunderground v.1.15,2013-07-18 20:53:00,
2013-07-18 15:59:00,90.7,67.7,30.09,SSE,164,8.0,14.0,47,0.00,,,0.00,809,Wunderground v.1.15,2013-07-18 20:59:00,
2013-07-18 16:05:00,91.6,69.1,30.08,South,180,8.0,9.0,48,0.00,,,0.00,784,Wunderground v.1.15,2013-07-18 21:05:00,
2013-07-18 16:13:00,91.7,68.6,30.08,South,180,9.0,9.0,47,0.00,,,0.00,722,Wunderground v.1.15,2013-07-18 21:13:00,
2013-07-18 16:19:00,92.6,67.5,30.08,SSE,153,9.0,10.0,44,0.00,,,0.00,747,Wunderground v.1.15,2013-07-18 21:19:00,
2013-07-18 16:25:00,92.3,67.2,30.08,South,190,9.0,9.0,44,0.00,,,0.00,710,Wunderground v.1.15,2013-07-18 21:25:00,
2013-07-18 16:31:00,92.1,68.3,30.08,South,187,9.0,9.0,46,0.00,,,0.00,714,Wunderground v.1.15,2013-07-18 21:31:00,
2013-07-18 16:37:00,92.1,68.3,30.08,SSE,166,8.0,14.0,46,0.00,,,0.00,696,Wunderground v.1.15,2013-07-18 21:37:00,
2013-07-18 16:43:00,92.4,68.0,30.07,South,172,7.0,7.0,45,0.00,,,0.00,686,Wunderground v.1.15,2013-07-18 21:43:00,
2013-07-18 16:49:00,92.4,66.7,30.07,SSE,166,7.0,10.0,43,0.00,,,0.00,677,Wunderground v.1.15,2013-07-18 21:49:00,
2013-07-18 16:55:00,92.4,67.3,30.07,South,185,7.0,7.0,44,0.00,,,0.00,679,Wunderground v.1.15,2013-07-18 21:55:00,
2013-07-18 17:01:00,92.5,67.4,30.07,South,191,7.0,10.0,44,0.00,,,0.00,649,Wunderground v.1.15,2013-07-18 22:01:00,
2013-07-18 17:07:00,92.4,66.7,30.06,SSW,198,6.0,7.0,43,0.00,,,0.00,621,Wunderground v.1.15,2013-07-18 22:07:00,
2013-07-18 17:13:00,92.7,66.9,30.06,SSW,207,6.0,6.0,43,0.00,,,0.00,610,Wunderground v.1.15,2013-07-18 22:13:00,
2013-07-18 17:19:00,92.7,66.2,30.06,SSW,205,7.0,12.0,42,0.00,,,0.00,598,Wunderground v.1.15,2013-07-18 22:19:00,
2013-07-18 17:25:00,92.4,68.0,30.06,SSW,194,7.0,7.0,45,0.00,,,0.00,626,Wunderground v.1.15,2013-07-18 22:25:00,
2013-07-18 17:31:00,92.4,66.0,30.06,SSW,195,7.0,10.0,42,0.00,,,0.00,591,Wunderground v.1.15,2013-07-18 22:31:00,
2013-07-18 17:37:00,92.5,66.7,30.06,SSW,197,7.0,7.0,43,0.00,,,0.00,550,Wunderground v.1.15,2013-07-18 22:37:00,
2013-07-18 17:43:00,92.2,67.1,30.06,SSW,212,7.0,7.0,44,0.00,,,0.00,483,Wunderground v.1.15,2013-07-18 22:43:00,
2013-07-18 17:49:00,92.1,66.4,30.06,South,184,7.0,14.0,43,0.00,,,0.00,489,Wunderground v.1.15,2013-07-18 22:49:00,
2013-07-18 17:55:00,92.1,66.4,30.05,SSW,198,8.0,10.0,43,0.00,,,0.00,482,Wunderground v.1.15,2013-07-18 22:55:00,
2013-07-18 18:01:00,92.2,65.8,30.05,South,185,7.0,10.0,42,0.00,,,0.00,457,Wunderground v.1.15,2013-07-18 23:01:00,
2013-07-18 18:07:00,91.6,65.3,30.05,SSE,166,7.0,11.0,42,0.00,,,0.00,408,Wunderground v.1.15,2013-07-18 23:07:00,
2013-07-18 18:13:00,91.4,65.1,30.05,SSW,200,7.0,8.0,42,0.00,,,0.00,360,Wunderground v.1.15,2013-07-18 23:13:00,
2013-07-18 18:19:00,91.1,64.8,30.05,South,184,7.0,8.0,42,0.00,,,0.00,385,Wunderground v.1.15,2013-07-18 23:19:00,
2013-07-18 18:25:00,91.2,64.9,30.04,SSW,192,6.0,7.0,42,0.00,,,0.00,387,Wunderground v.1.15,2013-07-18 23:25:00,
2013-07-18 18:31:00,91.4,65.1,30.04,South,189,6.0,8.0,42,0.00,,,0.00,332,Wunderground v.1.15,2013-07-18 23:31:00,
2013-07-18 18:37:00,91.0,64.7,30.04,South,178,6.0,11.0,42,0.00,,,0.00,339,Wunderground v.1.15,2013-07-18 23:37:00,
2013-07-18 18:43:00,90.8,64.5,30.04,South,183,6.0,6.0,42,0.00,,,0.00,306,Wunderground v.1.15,2013-07-18 23:43:00,
2013-07-18 18:49:00,90.6,65.0,30.04,SSW,204,6.0,6.0,43,0.00,,,0.00,306,Wunderground v.1.15,2013-07-18 23:49:00,
2013-07-18 18:55:00,90.7,65.1,30.03,SSW,208,5.0,6.0,43,0.00,,,0.00,278,Wunderground v.1.15,2013-07-18 23:55:00,
2013-07-18 19:01:00,90.2,64.0,30.04,SSW,199,5.0,10.0,42,0.00,,,0.00,51,Wunderground v.1.15,2013-07-19 00:01:00,
2013-07-18 19:07:00,89.9,65.1,30.03,SSW,212,7.0,11.0,44,0.00,,,0.00,258,Wunderground v.1.15,2013-07-19 00:07:00,
2013-07-18 19:13:00,89.8,65.0,30.03,South,170,5.0,5.0,44,0.00,,,0.00,229,Wunderground v.1.15,2013-07-19 00:13:00,
2013-07-18 19:19:00,89.6,66.1,30.03,SSW,193,5.0,5.0,46,0.00,,,0.00,206,Wunderground v.1.15,2013-07-19 00:19:00,
2013-07-18 19:25:00,89.4,65.9,30.03,SW,215,5.0,8.0,46,0.00,,,0.00,183,Wunderground v.1.15,2013-07-19 00:25:00,
2013-07-18 19:31:00,89.2,65.7,30.03,South,177,6.0,13.0,46,0.00,,,0.00,174,Wunderground v.1.15,2013-07-19 00:31:00,
2013-07-18 19:37:00,88.8,65.4,30.03,SSW,209,6.0,9.0,46,0.00,,,0.00,148,Wunderground v.1.15,2013-07-19 00:37:00,
2013-07-18 19:43:00,88.5,65.1,30.03,South,174,5.0,5.0,46,0.00,,,0.00,76,Wunderground v.1.15,2013-07-19 00:43:00,
2013-07-18 19:49:00,88.0,65.2,30.03,South,185,5.0,7.0,47,0.00,,,0.00,35,Wunderground v.1.15,2013-07-19 00:49:00,
2013-07-18 19:55:00,87.6,64.9,30.03,South,183,5.0,9.0,47,0.00,,,0.00,28,Wunderground v.1.15,2013-07-19 00:55:00,
2013-07-18 20:01:00,87.4,64.7,30.03,South,187,5.0,9.0,47,0.00,,,0.00,28,Wunderground v.1.15,2013-07-19 01:01:00,
2013-07-18 20:07:00,87.1,65.0,30.03,SSE,166,5.0,6.0,48,0.00,,,0.00,26,Wunderground v.1.15,2013-07-19 01:07:00,
2013-07-18 20:13:00,86.8,65.3,30.03,South,183,5.0,5.0,49,0.00,,,0.00,23,Wunderground v.1.15,2013-07-19 01:13:00,
2013-07-18 20:19:00,86.3,65.5,30.03,South,179,4.0,5.0,50,0.00,,,0.00,19,Wunderground v.1.15,2013-07-19 01:19:00,
2013-07-18 20:25:00,85.8,65.6,30.04,South,175,3.0,4.0,51,0.00,,,0.00,16,Wunderground v.1.15,2013-07-19 01:25:00,
2013-07-18 20:31:00,85.2,65.6,30.04,South,174,3.0,4.0,52,0.00,,,0.00,14,Wunderground v.1.15,2013-07-19 01:31:00,
2013-07-18 20:37:00,84.5,65.5,30.03,South,172,2.0,3.0,53,0.00,,,0.00,11,Wunderground v.1.15,2013-07-19 01:37:00,
2013-07-18 20:43:00,84.3,65.3,30.04,South,172,3.0,3.0,53,0.00,,,0.00,7,Wunderground v.1.15,2013-07-19 01:43:00,
2013-07-18 20:49:00,83.9,65.5,30.04,South,171,3.0,3.0,54,0.00,,,0.00,0,Wunderground v.1.15,2013-07-19 01:49:00,
2013-07-18 20:55:00,83.4,65.5,30.03,South,170,3.0,3.0,55,0.00,,,0.00,0,Wunderground v.1.15,2013-07-19 01:55:00,
2013-07-18 21:01:00,83.0,65.7,30.03,South,170,3.0,3.0,56,0.00,,,0.00,0,Wunderground v.1.15,2013-07-19 02:01:00,
2013-07-18 21:07:00,82.4,65.6,30.04,South,169,3.0,4.0,57,0.00,,,0.00,0,Wunderground v.1.15,2013-07-19 02:07:00,
2013-07-18 21:13:00,82.1,65.9,30.04,SSE,168,3.0,3.0,58,0.00,,,0.00,0,Wunderground v.1.15,2013-07-19 02:13:00,
2013-07-18 21:19:00,81.6,65.9,30.05,SSE,168,3.0,4.0,59,0.00,,,0.00,0,Wunderground v.1.15,2013-07-19 02:19:00,
2013-07-18 21:25:00,81.2,66.0,30.05,SSE,167,3.0,5.0,60,0.00,,,0.00,0,Wunderground v.1.15,2013-07-19 02:25:00,
2013-07-18 21:31:00,80.7,66.0,30.05,SSE,166,3.0,5.0,61,0.00,,,0.00,0,Wunderground v.1.15,2013-07-19 02:31:00,
2013-07-18 21:37:00,80.0,65.8,30.05,SSE,166,3.0,4.0,62,0.00,,,0.00,0,Wunderground v.1.15,2013-07-19 02:37:00,
2013-07-18 21:43:00,79.6,65.9,30.05,SSE,166,3.0,3.0,63,0.00,,,0.00,0,Wunderground v.1.15,2013-07-19 02:43:00,
2013-07-18 21:49:00,79.2,66.0,30.06,South,175,2.0,3.0,64,0.00,,,0.00,0,Wunderground v.1.15,2013-07-19 02:49:00,
2013-07-18 21:55:00,79.0,65.8,30.06,South,174,2.0,3.0,64,0.00,,,0.00,0,Wunderground v.1.15,2013-07-19 02:55:00,
2013-07-18 22:01:00,79.0,65.8,30.06,South,173,3.0,4.0,64,0.00,,,0.00,0,Wunderground v.1.15,2013-07-19 03:01:00,
2013-07-18 22:07:00,78.7,65.9,30.06,South,173,3.0,3.0,65,0.00,,,0.00,0,Wunderground v.1.15,2013-07-19 03:07:00,
2013-07-18 22:13:00,78.6,65.8,30.06,South,172,3.0,3.0,65,0.00,,,0.00,0,Wunderground v.1.15,2013-07-19 03:13:00,
2013-07-18 22:19:00,78.5,65.8,30.06,South,170,3.0,5.0,65,0.00,,,0.00,0,Wunderground v.1.15,2013-07-19 03:19:00,
2013-07-18 22:25:00,78.2,65.9,30.06,South,170,3.0,3.0,66,0.00,,,0.00,0,Wunderground v.1.15,2013-07-19 03:25:00,
2013-07-18 22:31:00,78.1,65.8,30.06,South,170,3.0,3.0,66,0.00,,,0.00,0,Wunderground v.1.15,2013-07-19 03:31:00,
2013-07-18 22:37:00,78.1,65.8,30.06,South,169,3.0,4.0,66,0.00,,,0.00,0,Wunderground v.1.15,2013-07-19 03:37:00,
2013-07-18 22:43:00,78.0,66.2,30.07,South,169,3.0,3.0,67,0.00,,,0.00,0,Wunderground v.1.15,2013-07-19 03:43:00,
2013-07-18 22:49:00,77.7,65.9,30.06,SSE,168,3.0,3.0,67,0.00,,,0.00,0,Wunderground v.1.15,2013-07-19 03:49:00,
2013-07-18 22:55:00,77.3,66.3,30.06,SSE,168,2.0,2.0,69,0.00,,,0.00,0,Wunderground v.1.15,2013-07-19 03:55:00,
2013-07-18 23:01:00,77.3,66.3,30.07,SSE,168,2.0,4.0,69,0.00,,,0.00,0,Wunderground v.1.15,2013-07-19 04:01:00,
2013-07-18 23:03:00,77.3,66.3,30.06,SSE,168,2.0,2.0,69,0.00,,,0.00,0,Wunderground v.1.15,2013-07-19 04:03:00,
2013-07-18 23:05:00,77.4,66.4,30.06,SSE,168,2.0,3.0,69,0.00,,,0.00,0,Wunderground v.1.15,2013-07-19 04:05:00,
2013-07-18 23:11:00,77.5,66.5,30.06,SSE,168,3.0,3.0,69,0.00,,,0.00,0,Wunderground v.1.15,2013-07-19 04:11:00,
2013-07-18 23:17:00,77.3,66.3,30.06,SSE,168,2.0,3.0,69,0.00,,,0.00,0,Wunderground v.1.15,2013-07-19 04:17:00,
2013-07-18 23:19:00,77.1,66.1,30.06,SSE,168,2.0,3.0,69,0.00,,,0.00,0,Wunderground v.1.15,2013-07-19 04:19:00,
2013-07-18 23:25:00,76.8,66.3,30.06,South,181,1.0,2.0,70,0.00,,,0.00,0,Wunderground v.1.15,2013-07-19 04:25:00,
2013-07-18 23:31:00,76.8,66.3,30.06,South,181,1.0,2.0,70,0.00,,,0.00,0,Wunderground v.1.15,2013-07-19 04:31:00,
2013-07-18 23:37:00,76.9,66.4,30.06,South,183,1.0,5.0,70,0.00,,,0.00,0,Wunderground v.1.15,2013-07-19 04:37:00,
2013-07-18 23:43:00,77.2,66.2,30.06,South,183,2.0,4.0,69,0.00,,,0.00,0,Wunderground v.1.15,2013-07-19 04:43:00,
2013-07-18 23:49:00,77.1,66.6,30.06,South,185,2.0,4.0,70,0.00,,,0.00,0,Wunderground v.1.15,2013-07-19 04:49:00,
2013-07-18 23:55:00,77.1,66.6,30.06,South,188,2.0,2.0,70,0.00,,,0.00,0,Wunderground v.1.15,2013-07-19 04:55:00,